{"data":{"norad_id":52746,"epoch":"2026-09-20T23:08:41.789184Z","epoch_age_seconds":91273,"freshness":"FRESH","line1":"1 52746U 22057Q   26263.96437256  .00004941  00000+0  14621-3 0  9995","line2":"2 52746  97.6654  52.1019 0007198 119.1812 241.0151 15.35379135240236","mean_motion":15.35379135,"eccentricity":0.0007198,"inclination_deg":97.6654,"raan_deg":52.1019,"arg_perigee_deg":119.1812,"mean_anomaly_deg":241.0151,"bstar":0.00014621,"rev_number":24023,"period_min":93.787909915814,"perigee_km":454.87264815784,"apogee_km":464.7165344767,"semimajor_km":6837.9315913173,"source":"CELESTRAK","updated_at":"2026-09-21T09:00:08.715430Z"}}